KC1HBM Weather Reports


time (UTC)temp
C
wind
direction
speed
KPH
gust
KPH
rain 1hr
cm
rain 24hr
cm
rain mn
cm
humidity
%
barometer
mb
20260508025554 10 298 0.0 0.0 0.00 0.10 0.10 51 1005.6
20260508025051 10 298 0.0 0.0 0.00 0.10 0.10 50 1005.4
20260508024547 10 298 0.0 0.0 0.00 0.10 0.10 49 1005.2
20260508024044 10 298 0.0 0.0 0.00 0.10 0.10 49 1005.3
20260508023540 10 298 0.0 0.0 0.00 0.10 0.10 48 1005.3
20260508023038 10 298 0.0 0.0 0.00 0.10 0.10 48 1005.3
20260508022534 10 298 0.0 0.0 0.00 0.10 0.10 47 1005.2
20260508022031 10 298 0.0 0.0 0.00 0.10 0.10 47 1005.1
20260508021527 10 297 0.0 1.6 0.00 0.10 0.10 47 1005.2
20260508021022 11 297 1.6 1.6 0.00 0.10 0.10 46 1004.7
20260508020521 11 297 0.0 1.6 0.00 0.10 0.10 46 1005.0
20260508020018 11 297 0.0 1.6 0.00 0.10 0.10 45 1004.9
20260508015515 11 297 0.0 0.0 0.00 0.10 0.10 44 1004.8
20260508015012 11 297 0.0 1.6 0.00 0.10 0.10 44 1004.6
20260508014509 11 297 0.0 1.6 0.00 0.10 0.10 44 1004.6
20260508014005 11 297 1.6 1.6 0.00 0.10 0.10 43 1004.5
20260508013501 11 297 0.0 0.0 0.00 0.10 0.10 44 1004.5
20260508012959 12 297 0.0 0.0 0.00 0.10 0.10 43 1004.5
20260508012456 12 296 0.0 0.0 0.00 0.10 0.10 44 1004.4
20260508011953 12 296 0.0 0.0 0.00 0.10 0.10 44 1004.2
20260508011451 12 296 0.0 0.0 0.00 0.10 0.10 43 1004.3
20260508010948 12 296 0.0 0.0 0.00 0.10 0.10 42 1004.1
20260508010445 12 296 0.0 0.0 0.00 0.10 0.10 43 1004.0
20260508005942 12 296 0.0 0.0 0.00 0.10 0.10 42 1004.0
20260508005439 12 296 1.6 1.6 0.00 0.10 0.10 41 1003.9
20260508004935 12 296 0.0 0.0 0.00 0.10 0.10 43 1003.9
20260508004431 12 296 0.0 1.6 0.00 0.10 0.10 41 1003.9
20260508003928 12 296 0.0 0.0 0.00 0.10 0.10 43 1003.9
20260508003425 12 296 0.0 0.0 0.00 0.10 0.10 42 1003.4
20260508002922 12 296 0.0 0.0 0.00 0.10 0.10 44 1003.4
20260508002419 12 296 0.0 0.0 0.00 0.10 0.10 44 1003.5
20260508001915 12 296 0.0 0.0 0.00 0.10 0.10 47 1003.2
20260508001411 12 296 0.0 0.0 0.00 0.10 0.10 45 1003.4
20260508000908 12 296 0.0 0.0 0.00 0.10 0.10 45 1003.2
20260508000405 12 296 0.0 0.0 0.00 0.10 0.10 45 1003.2
20260507235901 13 296 0.0 0.0 0.00 0.10 0.10 45 1003.2
20260507235358 13 296 0.0 0.0 0.00 0.10 0.10 44 1003.1
20260507234855 13 296 0.0 0.0 0.00 0.10 0.10 44 1002.9
20260507234352 13 296 0.0 1.6 0.00 0.10 0.10 44 1002.8
20260507233848 13 296 0.0 0.0 0.00 0.10 0.10 43 1002.9
20260507233345 13 296 0.0 0.0 0.00 0.10 0.10 43 1002.9
20260507232844 13 296 0.0 0.0 0.00 0.10 0.10 42 1002.9
20260507232340 13 296 0.0 1.6 0.00 0.10 0.10 41 1002.7
20260507231838 14 296 1.6 3.2 0.00 0.10 0.10 40 1002.7
20260507231334 14 296 0.0 0.0 0.00 0.10 0.10 42 1002.7
20260507230830 14 296 1.6 3.2 0.00 0.10 0.10 40 1002.7
20260507230327 14 296 3.2 3.2 0.00 0.10 0.10 41 1002.7
20260507225827 15 296 0.0 0.0 0.00 0.10 0.10 40 1002.4
20260507225323 15 296 1.6 1.6 0.00 0.10 0.10 39 1002.6
20260507224820 15 295 0.0 1.6 0.00 0.10 0.10 41 1002.3
20260507224317 15 296 1.6 1.6 0.00 0.10 0.10 40 1002.1
20260507223813 15 296 0.0 1.6 0.00 0.10 0.10 40 1002.1
20260507223309 15 296 1.6 1.6 0.00 0.10 0.10 40 1002.3
20260507222807 15 296 1.6 1.6 0.00 0.10 0.10 40 1002.3
20260507222305 15 296 3.2 3.2 0.00 0.10 0.10 39 1002.0
20260507221800 15 295 3.2 3.2 0.00 0.10 0.10 39 1002.2
20260507221256 15 295 4.8 4.8 0.00 0.10 0.10 38 1001.8
20260507220752 16 295 3.2 3.2 0.00 0.10 0.10 38 1002.0
20260507220251 16 295 3.2 3.2 0.00 0.10 0.10 37 1001.8
20260507215747 16 295 1.6 3.2 0.00 0.10 0.10 40 1001.9
20260507215244 16 295 1.6 3.2 0.00 0.10 0.10 39 1001.9
20260507214741 16 295 1.6 1.6 0.00 0.10 0.10 39 1001.8
20260507214238 16 295 3.2 3.2 0.00 0.10 0.10 37 1001.9
20260507213733 16 295 3.2 3.2 0.00 0.10 0.10 39 1002.0
20260507213231 16 295 3.2 4.8 0.00 0.10 0.10 37 1001.8
20260507212727 16 295 3.2 3.2 0.00 0.10 0.10 36 1001.9
20260507212224 16 295 1.6 1.6 0.00 0.10 0.10 37 1001.7
20260507211720 16 295 4.8 4.8 0.00 0.10 0.10 37 1001.8
20260507211216 16 298 1.6 1.6 0.00 0.10 0.10 35 1001.8
20260507210714 16 298 1.6 1.6 0.00 0.10 0.10 38 1001.6
20260507210210 16 298 3.2 3.2 0.00 0.10 0.10 38 1001.6
20260507205707 16 300 1.6 3.2 0.00 0.10 0.10 37 1001.8
20260507205204 16 300 4.8 4.8 0.00 0.10 0.10 37 1001.7
20260507204700 16 300 3.2 3.2 0.00 0.10 0.10 38 1001.7
20260507204158 16 300 0.0 1.6 0.00 0.10 0.10 41 1001.6
20260507203656 16 300 3.2 4.8 0.00 0.10 0.10 39 1001.4
20260507203153 17 301 1.6 3.2 0.00 0.10 0.10 38 1001.5
20260507202648 17 301 1.6 1.6 0.00 0.10 0.10 38 1001.6
20260507202144 17 301 0.0 0.0 0.00 0.10 0.10 38 1001.6
20260507201639 16 300 1.6 1.6 0.00 0.10 0.10 38 1001.6
20260507201137 17 307 4.8 9.7 0.00 0.10 0.10 35 1001.6
20260507200633 17 302 3.2 4.8 0.00 0.10 0.10 37 1001.6
20260507200129 17 302 3.2 3.2 0.00 0.10 0.10 36 1001.8
20260507195626 16 302 1.6 1.6 0.00 0.10 0.10 39 1001.8
20260507195123 17 303 1.6 3.2 0.00 0.10 0.10 39 1001.8
20260507194620 16 303 1.6 1.6 0.00 0.10 0.10 38 1001.8
20260507194115 16 303 1.6 1.6 0.00 0.10 0.10 40 1002.0
20260507193613 16 303 1.6 1.6 0.00 0.10 0.10 42 1001.9
20260507193109 16 303 1.6 1.6 0.00 0.10 0.10 39 1001.7
20260507192606 17 303 1.6 1.6 0.00 0.10 0.10 40 1001.9
20260507192103 17 303 4.8 4.8 0.00 0.10 0.10 38 1002.0
20260507191558 17 305 0.0 1.6 0.00 0.10 0.10 38 1001.9
20260507191055 17 309 3.2 4.8 0.00 0.10 0.10 37 1002.1
20260507190552 18 310 1.6 1.6 0.00 0.10 0.10 38 1001.9
20260507190051 17 338 3.2 3.2 0.00 0.10 0.10 37 1002.0
20260507185549 17 301 0.0 1.6 0.00 0.10 0.10 36 1001.8
20260507185045 17 302 6.4 8.0 0.00 0.10 0.10 35 1002.0
20260507184544 18 306 3.2 3.2 0.00 0.10 0.10 38 1001.8
20260507184041 17 308 1.6 1.6 0.00 0.10 0.10 46 1002.0
20260507183537 17 301 1.6 3.2 0.00 0.10 0.10 46 1002.2
20260507183034 17 301 3.2 3.2 0.00 0.10 0.10 48 1002.1
20260507182531 17 302 0.0 1.6 0.00 0.10 0.10 46 1002.2
20260507182026 17 301 1.6 1.6 0.00 0.10 0.10 47 1002.1
20260507181524 17 300 0.0 1.6 0.00 0.10 0.10 47 1002.4
20260507181020 17 300 3.2 4.8 0.00 0.10 0.10 46 1002.2
20260507180516 17 300 3.2 4.8 0.00 0.10 0.10 47 1002.1
20260507180013 17 301 3.2 3.2 0.00 0.10 0.10 46 1002.1
20260507175509 17 301 4.8 8.0 0.00 0.10 0.10 46 1002.3
20260507175007 17 301 3.2 3.2 0.00 0.10 0.10 47 1002.3
20260507174504 17 301 4.8 4.8 0.00 0.10 0.10 47 1002.7
20260507174002 17 302 1.6 1.6 0.00 0.10 0.10 50 1002.4
20260507173458 16 303 3.2 3.2 0.00 0.10 0.10 52 1002.5
20260507172955 17 304 4.8 4.8 0.00 0.10 0.10 50 1002.5
20260507172452 18 305 1.6 4.8 0.00 0.10 0.10 48 1002.5
20260507171948 17 305 0.0 1.6 0.00 0.10 0.10 50 1002.6
20260507171444 17 303 6.4 8.0 0.00 0.10 0.10 50 1002.8
20260507170942 17 304 3.2 3.2 0.00 0.10 0.10 52 1002.7
20260507170438 17 304 4.8 4.8 0.00 0.10 0.10 51 1002.7
20260507165934 18 304 4.8 4.8 0.00 0.10 0.10 51 1002.7
20260507165431 18 310 3.2 3.2 0.00 0.10 0.10 51 1002.8
20260507164926 18 310 1.6 1.6 0.00 0.10 0.10 52 1002.9
20260507164424 17 310 3.2 3.2 0.00 0.10 0.10 53 1002.9
20260507163920 16 8 4.8 4.8 0.00 0.10 0.10 55 1002.8
20260507163418 14 310 1.6 1.6 0.00 0.10 0.10 68 1003.2
20260507162915 13 309 3.2 3.2 0.00 0.10 0.10 69 1003.0
20260507162410 13 309 3.2 3.2 0.00 0.10 0.10 71 1003.1
20260507161908 15 326 1.6 1.6 0.00 0.10 0.10 69 1003.2
20260507161403 14 327 0.0 1.6 0.00 0.10 0.10 66 1003.2
20260507160901 13 322 1.6 1.6 0.00 0.10 0.10 71 1003.4
20260507160356 13 325 3.2 3.2 0.00 0.10 0.10 70 1003.5
20260507155852 13 325 1.6 3.2 0.00 0.10 0.10 68 1003.8
20260507155348 13 327 1.6 3.2 0.00 0.10 0.10 69 1003.6
20260507154845 13 327 8.0 11.3 0.00 0.10 0.10 67 1003.8
20260507154345 15 316 1.6 3.2 0.00 0.00 0.00
20260507154343 15 316 1.6 3.2 0.00 0.10 0.10 68 1003.4
20260507153840 14 316 1.6 4.8 0.00 0.10 0.10 68 1003.4
20260507153537 15 316 1.6 1.6 0.00 0.10 0.10 69 1003.6
20260507153336 15 316 1.6 1.6 0.00 0.10 0.10 69 1003.6
20260507153120 15 312 3.2 3.2 0.00 0.10 0.10 67 1003.6
20260507152849 16 312 3.2 3.2 0.00 0.10 0.10 66 1003.8
20260507152833 15 312 3.2 3.2 0.00 0.10 0.10 67 1003.6
20260507152329 16 312 3.2 3.2 0.00 0.10 0.10 66 1003.8
20260507152014 15 311 4.8 8.0 0.00 0.10 0.10 71 1003.7
20260507151825 15 311 4.8 8.0 0.00 0.10 0.10 71 1003.7
20260507151321 15 312 4.8 8.0 0.00 0.10 0.10 69 1003.8
20260507150818 17 312 1.6 3.2 0.00 0.10 0.10 63 1003.6
20260507150315 18 312 1.6 1.6 0.00 0.10 0.10 49 1003.5
20260507145811 17 312 0.0 0.0 0.00 0.10 0.10 56 1003.5
20260507145308 17 312 1.6 1.6 0.00 0.10 0.10 55 1003.9
20260507144805 16 312 0.0 1.6 0.00 0.10 0.10 66 1003.7
20260507144302 16 311 1.6 1.6 0.00 0.10 0.10 64 1003.7
20260507143758 16 312 0.0 0.0 0.00 0.10 0.10 67 1003.8
20260507143256 17 312 0.0 0.0 0.00 0.10 0.10 59 1003.7
20260507142752 17 312 1.6 1.6 0.00 0.10 0.10 60 1003.8
20260507142248 16 312 1.6 1.6 0.00 0.10 0.10 63 1004.0
20260507141745 15 312 0.0 0.0 0.00 0.10 0.10 68 1003.9
20260507141242 16 311 0.0 0.0 0.00 0.10 0.10 61 1004.0
20260507140738 17 312 0.0 0.0 0.00 0.10 0.10 61 1004.2
20260507140236 17 312 1.6 1.6 0.00 0.10 0.10 62 1004.2
20260507135733 16 312 0.0 0.0 0.00 0.10 0.10 67 1004.5
20260507135230 16 312 0.0 0.0 0.00 0.10 0.10 65 1004.2
20260507134726 16 312 1.6 1.6 0.00 0.10 0.10 66 1004.3
20260507134222 16 311 3.2 3.2 0.00 0.10 0.10 69 1004.3
20260507133719 16 312 0.0 1.6 0.00 0.10 0.10 68 1004.1
20260507133215 16 312 3.2 3.2 0.00 0.10 0.10 68 1004.1
20260507132713 16 312 0.0 1.6 0.00 0.10 0.10 69 1004.4
20260507132209 16 312 0.0 0.0 0.00 0.10 0.10 67 1004.3
20260507131706 17 312 0.0 1.6 0.00 0.10 0.10 65 1004.4
20260507131204 16 312 0.0 0.0 0.00 0.10 0.10 67 1004.4
20260507130700 16 312 0.0 0.0 0.00 0.10 0.10 67 1004.5
20260507130158 16 312 1.6 3.2 0.00 0.10 0.10 70 1004.5
20260507125657 16 312 0.0 0.0 0.00 0.10 0.10 70 1004.6
20260507125154 16 312 0.0 0.0 0.00 0.10 0.10 69 1004.5
20260507124650 15 312 0.0 1.6 0.00 0.10 0.10 69 1004.5
20260507124148 16 312 0.0 0.0 0.00 0.10 0.10 69 1004.6
20260507123646 15 312 0.0 0.0 0.00 0.10 0.10 68 1004.6
20260507123143 15 312 0.0 0.0 0.00 0.10 0.10 69 1004.6
20260507122638 15 311 1.6 1.6 0.00 0.10 0.10 70 1004.8
20260507122134 15 311 0.0 0.0 0.00 0.10 0.10 72 1004.7
20260507121630 15 313 1.6 1.6 0.00 0.10 0.10 73 1004.6
20260507121126 15 313 0.0 0.0 0.00 0.10 0.10 71 1004.7
20260507120622 15 313 0.0 0.0 0.00 0.10 0.10 71 1004.8
20260507120119 14 312 0.0 0.0 0.00 0.10 0.10 73 1004.7
20260507115615 13 310 0.0 0.0 0.00 0.10 0.10 75 1004.6
20260507115111 12 311 0.0 0.0 0.00 0.10 0.10 80 1005.0
20260507114607 11 312 0.0 0.0 0.00 0.10 0.10 84 1004.7
20260507114105 11 310 0.0 0.0 0.00 0.10 0.10 86 1004.5
20260507113602 10 315 0.0 0.0 0.00 0.10 0.10 89 1004.7
20260507113059 10 314 0.0 0.0 0.00 0.10 0.10 90 1004.4
20260507112557 10 315 0.0 0.0 0.00 0.10 0.10 91 1004.5
20260507112053 10 309 0.0 0.0 0.00 0.10 0.10 93 1004.6
20260507111550 10 310 0.0 0.0 0.00 0.10 0.10 94 1004.9
20260507111047 10 314 0.0 0.0 0.00 0.10 0.10 94 1004.6
20260507110543 9 311 0.0 0.0 0.00 0.10 0.10 96 1004.8
20260507110040 8 311 0.0 0.0 0.00 0.10 0.10 96 1004.7
20260507105537 8 311 0.0 0.0 0.00 0.10 0.10 96 1004.9
20260507105033 8 312 0.0 0.0 0.00 0.10 0.10 96 1004.5
20260507104530 8 314 0.0 0.0 0.00 0.10 0.10 96 1004.5
20260507104027 8 310 0.0 0.0 0.00 0.10 0.10 97 1004.9
20260507103523 8 310 0.0 0.0 0.00 0.10 0.10 97 1005.3
20260507103019 8 309 0.0 0.0 0.00 0.10 0.10 98 1005.0
20260507102516 8 315 0.0 0.0 0.00 0.10 0.10 98 1004.8
20260507102012 8 316 0.0 0.0 0.00 0.10 0.10 98 1004.5
20260507101507 8 312 0.0 0.0 0.00 0.10 0.10 98 1004.9
20260507101004 8 315 0.0 0.0 0.00 0.10 0.10 97 1004.5
20260507100501 8 314 0.0 0.0 0.00 0.10 0.10 97 1004.6
20260507095959 8 315 0.0 0.0 0.00 0.10 0.10 98 1004.6
20260507095457 8 315 0.0 0.0 0.00 0.10 0.10 98 1004.6
20260507094954 8 313 0.0 0.0 0.00 0.10 0.10 98 1005.0
20260507094450 8 313 0.0 0.0 0.00 0.10 0.10 99 1004.7
20260507093947 8 322 0.0 0.0 0.00 0.10 0.10 99 1004.1
20260507093445 8 314 0.0 0.0 0.00 0.10 0.10 99 1004.0
20260507092943 8 313 0.0 0.0 0.00 0.10 0.10 99 1004.6
20260507092439 8 315 0.0 0.0 0.00 0.10 0.10 99 1004.5
20260507091936 8 336 0.0 0.0 0.00 0.10 0.10 99 1004.0
20260507091432 8 312 0.0 0.0 0.00 0.10 0.10 99 1004.0
20260507090928 8 314 0.0 1.6 0.00 0.10 0.10 99 1003.8
20260507090425 8 315 0.0 0.0 0.00 0.10 0.10 99 1004.2
20260507085921 8 314 0.0 0.0 0.00 0.10 0.10 99 1004.1
20260507085418 8 313 0.0 0.0 0.00 0.10 0.10 99 1003.9
20260507084915 8 316 0.0 0.0 0.00 0.10 0.10 99 1004.1
20260507084412 8 314 0.0 0.0 0.00 0.10 0.10 99 1003.9
20260507083909 8 314 0.0 0.0 0.00 0.10 0.10 99 1004.3
20260507083405 8 312 0.0 0.0 0.00 0.10 0.10 99 1004.4
20260507082902 8 324 0.0 0.0 0.00 0.10 0.10 99 1004.7
20260507082357 8 311 0.0 0.0 0.00 0.10 0.10 99 1004.3
20260507081855 8 313 0.0 0.0 0.00 0.10 0.10 99 1004.0
20260507081351 8 312 0.0 0.0 0.00 0.10 0.10 99 1003.7
20260507080848 8 314 0.0 0.0 0.00 0.10 0.10 99 1003.7
20260507080344 8 313 0.0 0.0 0.00 0.10 0.10 99 1003.4
20260507075839 8 315 0.0 0.0 0.00 0.10 0.10 99 1003.7
20260507075336 9 312 0.0 0.0 0.00 0.10 0.10 99 1003.5
20260507074832 9 314 0.0 0.0 0.00 0.10 0.10 99 1003.8
20260507074330 9 315 0.0 0.0 0.00 0.10 0.10 99 1004.1
20260507073827 9 310 0.0 0.0 0.00 0.10 0.10 99 1003.9
20260507073324 9 313 0.0 0.0 0.00 0.10 0.10 99 1003.8
20260507072821 9 314 0.0 0.0 0.00 0.10 0.10 99 1003.8
20260507072318 9 312 0.0 0.0 0.00 0.10 0.10 99 1003.6
20260507071815 9 312 0.0 0.0 0.00 0.10 0.10 99 1003.4
20260507071312 10 312 0.0 0.0 0.00 0.10 0.10 99 1003.3
20260507070809 10 312 0.0 0.0 0.00 0.10 0.10 99 1003.2
20260507070306 10 309 0.0 0.0 0.00 0.10 0.10 99 1003.6
20260507065802 10 313 0.0 0.0 0.00 0.10 0.10 99 1003.4
20260507065259 10 313 0.0 0.0 0.00 0.10 0.10 99 1003.1
20260507064756 10 313 0.0 0.0 0.00 0.10 0.10 99 1003.3
20260507064255 10 313 0.0 0.0 0.00 0.10 0.10 99 1003.2
20260507063753 10 313 0.0 0.0 0.00 0.10 0.10 99 1003.3
20260507063249 10 311 0.0 0.0 0.00 0.10 0.10 99 1003.2
20260507062746 10 313 0.0 0.0 0.00 0.10 0.10 99 1003.1
20260507062243 10 313 0.0 0.0 0.00 0.10 0.10 99 1003.1
20260507061741 10 313 0.0 0.0 0.00 0.10 0.10 99 1003.1
20260507061239 10 313 0.0 0.0 0.00 0.10 0.10 99 1003.1
20260507060737 10 312 0.0 1.6 0.00 0.10 0.10 99 1003.0
20260507060233 10 309 0.0 0.0 0.00 0.10 0.10 99 1003.0
20260507055729 10 314 0.0 0.0 0.00 0.10 0.10 99 1003.1
20260507055225 10 314 0.0 0.0 0.00 0.10 0.10 99 1003.2
20260507054721 10 320 0.0 0.0 0.00 0.10 0.10 99 1002.7
20260507054218 10 315 0.0 0.0 0.18 0.10 0.10 99 1002.8
20260507053716 10 307 0.0 0.0 0.18 0.10 0.10 99 1002.7
20260507053213 11 300 0.0 0.0 0.00 0.08 0.08 99 1002.7
20260507052712 11 315 0.0 1.6 0.00 0.08 0.08 99 1002.8
20260507052208 11 312 0.0 0.0 0.00 0.08 0.08 99 1002.8
20260507051706 11 311 0.0 0.0 0.00 0.08 0.08 99 1002.8
20260507051202 11 313 0.0 0.0 0.13 0.08 0.08 99 1002.7
20260507050659 11 308 0.0 0.0 0.13 0.08 0.08 99 1002.6
20260507050156 11 310 0.0 0.0 0.00 0.05 0.05 99 1002.7
20260507045653 12 307 1.6 1.6 0.00 0.05 0.05 99 1002.3
20260507045149 12 309 0.0 0.0 0.00 0.05 0.05 99 1002.2
20260507044646 11 309 0.0 0.0 0.00 0.05 0.05 99 1002.3
20260507044143 11 309 0.0 1.6 0.00 0.05 0.05 99 1002.1
20260507043639 11 312 0.0 0.0 0.00 0.05 0.05 99 1002.2
20260507043136 11 308 0.0 0.0 0.00 0.05 0.05 99 1002.2
20260507042633 12 308 0.0 0.0 0.18 0.05 0.05 99 1001.7
20260507042128 11 308 0.0 0.0 0.36 0.05 0.05 99 1001.8
20260507041625 11 312 0.0 0.0 0.18 0.03 0.03 99 1001.6
20260507041121 11 312 0.0 0.0 0.00 0.00 0.00 99 1002.2
20260507040619 11 313 0.0 0.0 0.00 0.00 0.00 99 1002.4
20260507040115 11 312 0.0 0.0 0.30 0.00 0.00 99 1002.3
20260507035611 11 310 0.0 0.0 0.30 0.53 0.53 99 1002.2
20260507035107 11 335 1.6 3.2 0.00 0.48 0.48 99 1002.2
20260507034605 11 348 3.2 3.2 0.00 0.48 0.48 99 1002.2
20260507034102 11 301 0.0 1.6 0.00 0.48 0.48 99 1001.8
20260507033600 11 334 0.0 1.6 0.13 0.48 0.48 99 1002.0
20260507033056 11 318 1.6 3.2 0.13 0.48 0.48 99 1002.1
20260507032554 11 329 1.6 1.6 0.00 0.46 0.46 99 1001.9
20260507032050 11 313 0.0 0.0 0.00 0.46 0.46 99 1001.8
20260507031547 11 328 0.0 1.6 0.00 0.46 0.46 99 1002.0
20260507031044 11 313 0.0 0.0 0.00 0.46 0.46 99 1001.9
20260507030540 11 314 1.6 1.6 0.00 0.46 0.46 99 1001.6
20260507030038 11 313 1.6 1.6 0.00 0.46 0.46 99 1001.9